User: anonymous   Login
Location: Unspecified
(0.0000°N, 0.0000°E)
Time: 14:17:56
(UTC+00:00)
Language:

BEIDOU M1 - Orbit

View from above orbital plane
View from above orbital plane
View from above satellite
View from above satellite

Ground track
Ground track

The orbit data is extracted from the following two-line orbital elements,

1 31115U 07011A   18114.44007596 -.00000045 +00000-0 +00000-0 0  9990
2 31115 053.0050 317.5973 0000927 334.9897 025.0258 01.77348258023374
Epoch (UTC): 24 April 2018 10:33:42
Eccentricity: 0.0000927
inclination: 53.0050°
perigee height: 22449 km
apogee height: 22455 km
right ascension of ascending node: 317.5973°
argument of perigee: 334.9897°
revolutions per day: 1.77348258
mean anomaly at epoch: 25.0258°
orbit number at epoch: 2337

The dashed part of the orbit path shows where the satellite is in the earth's shadow,  

DLR